Hobbs, NM

12:08 PM MDT on June 22, 2017 (GMT -0600)
Lea County Regional

Weather History for KHOB - September, 2013

Change the Weather History Date:

Monday, September 30, 2013

  Actual Average Record
Temperature  
Mean Temperature 68 °F -  
Max Temperature 87 °F 81 °F 95 °F (1997)
Min Temperature 48 °F 54 °F 37 °F (1996)
Cooling Degree Days 2    
Growing Degree Days 18 (Base 50)    
Moisture  
Dew Point 32 °F    
Average Humidity 35    
Maximum Humidity 71    
Minimum Humidity 8    
Precipitation  
Precipitation 0.00 in - - ()
Sea Level Pressure  
Sea Level Pressure 29.94 in    
Wind  
Wind Speed 6 mph (SW)    
Max Wind Speed 14 mph    
Max Gust Speed 20 mph    
Visibility 10 miles    
Events      
Averages and records for this station are not official NWS values.
T = Trace of Precipitation, MM = Missing Value Source: NWS Daily Summary

Daily Weather History Graph

Daily Weather History Graph

Search for Another Location

Airport or City:

Trip Planner

Search our weather history database for the weather conditions in past years. The results will help you decide how hot, cold, wet, or windy it might be!

Date:

Astronomy

Sep. 30, 2013 Rise Set
Actual Time 6:46 AM MDT 6:38 PM MDT
Civil Twilight 6:21 AM MDT 7:03 PM MDT
Nautical Twilight 5:53 AM MDT 7:31 PM MDT
Astronomical Twilight 5:24 AM MDT 8:00 PM MDT
Moon 2:37 AM MDT (9/30) 3:59 PM MDT (9/30)
Length of Visible Light 12h 41m
Length of Day
11h 51m
Waning Crescent, 18% of the Moon is Illuminated
Sep 30
Waning Crescent
Oct 4
New
Oct 11
First Quarter
Oct 18
Full
Oct 26
Last Quarter

Hourly Weather History & Observations

Time (MDT) Temp. Dew Point Humidity Pressure Visibility Wind Dir Wind Speed Gust Speed Precip Events Conditions
12:15 AM 57.2 °F 41.0 °F 55% 30.04 in 10.0 mi SSW 5.8 mph - N/A   Clear
12:35 AM 57.2 °F 42.8 °F 59% 30.03 in 10.0 mi SSW 4.6 mph - N/A   Clear
12:55 AM 57.2 °F 42.8 °F 59% 30.03 in 10.0 mi SSW 6.9 mph - N/A   Clear
1:15 AM 57.2 °F 41.0 °F 55% 30.02 in 10.0 mi SSW 6.9 mph - N/A   Clear
1:35 AM 57.2 °F 41.0 °F 55% 30.02 in 10.0 mi SSW 8.1 mph - N/A   Clear
1:55 AM 55.4 °F 41.0 °F 58% 30.02 in 10.0 mi Calm Calm - N/A   Clear
2:15 AM 55.4 °F 41.0 °F 58% 30.01 in 10.0 mi SSW 5.8 mph - N/A   Clear
2:35 AM 55.4 °F 41.0 °F 58% 30.00 in 10.0 mi SSW 3.5 mph - N/A   Clear
2:55 AM 55.4 °F 41.0 °F 58% 29.99 in 10.0 mi SSW 6.9 mph - N/A   Clear
3:15 AM 55.4 °F 41.0 °F 58% 29.99 in 10.0 mi SSW 6.9 mph - N/A   Clear
3:35 AM 55.4 °F 41.0 °F 58% 29.98 in 10.0 mi Calm Calm - N/A   Clear
3:55 AM 53.6 °F 41.0 °F 62% 29.98 in 10.0 mi Calm Calm - N/A   Clear
4:15 AM 53.6 °F 41.0 °F 62% 29.98 in 10.0 mi Calm Calm - N/A   Clear
4:35 AM 51.8 °F 41.0 °F 67% 29.98 in 10.0 mi Calm Calm - N/A   Clear
4:55 AM 50.0 °F 41.0 °F 71% 29.98 in 10.0 mi Calm Calm - N/A   Clear
5:50 AM 48.2 °F 39.2 °F 71% 29.97 in 10.0 mi Calm Calm - N/A   Clear
6:50 AM 50.0 °F 35.6 °F 58% 29.97 in 10.0 mi Calm Calm - N/A   Clear
7:50 AM 62.6 °F 32.0 °F 32% 29.98 in 10.0 mi West 10.4 mph - N/A   Clear
8:50 AM 73.4 °F 32.0 °F 22% 29.98 in 10.0 mi WSW 11.5 mph - N/A   Clear
9:50 AM 78.8 °F 32.0 °F 18% 29.98 in 10.0 mi WSW 12.7 mph - N/A   Clear
10:50 AM 84.2 °F 28.4 °F 13% 29.98 in 10.0 mi SW 9.2 mph - N/A   Clear
11:50 AM 86.0 °F 24.8 °F 11% 29.95 in 10.0 mi WSW 13.8 mph 19.6 mph N/A   Clear
2:50 PM 87.8 °F 23.0 °F 9% 29.88 in 10.0 mi SSW 4.6 mph 16.1 mph N/A   Clear
3:50 PM 87.8 °F 21.2 °F 9% 29.87 in 10.0 mi SSW 5.8 mph - N/A   Partly Cloudy
4:50 PM 87.8 °F 19.4 °F 8% 29.87 in 10.0 mi SSW 8.1 mph - N/A   Partly Cloudy
5:50 PM 87.8 °F 24.8 °F 10% 29.87 in 10.0 mi SW 6.9 mph - N/A   Partly Cloudy
6:15 PM 84.2 °F 23.0 °F 11% 29.87 in 10.0 mi SW 6.9 mph - N/A   Clear
6:35 PM 82.4 °F 23.0 °F 11% 29.88 in 10.0 mi SW 5.8 mph - N/A   Clear
6:55 PM 78.8 °F 23.0 °F 13% 29.88 in 10.0 mi SW 6.9 mph - N/A   Clear
7:15 PM 77.0 °F 23.0 °F 13% 29.88 in 10.0 mi WSW 6.9 mph - N/A   Clear
7:35 PM 75.2 °F 23.0 °F 14% 29.88 in 10.0 mi SW 6.9 mph - N/A   Clear
7:55 PM 71.6 °F 24.8 °F 17% 29.88 in 10.0 mi SW 6.9 mph - N/A   Clear
8:15 PM 71.6 °F 26.6 °F 19% 29.89 in 10.0 mi SW 8.1 mph - N/A   Clear
8:35 PM 69.8 °F 26.6 °F 20% 29.89 in 10.0 mi SW 6.9 mph - N/A   Clear
8:55 PM 68.0 °F 26.6 °F 21% 29.90 in 10.0 mi WSW 6.9 mph - N/A   Clear
9:15 PM 68.0 °F 26.6 °F 21% 29.90 in 10.0 mi WSW 8.1 mph - N/A   Clear
9:35 PM 69.8 °F 28.4 °F 21% 29.91 in 10.0 mi WSW 9.2 mph - N/A   Clear
9:55 PM 68.0 °F 28.4 °F 23% 29.91 in 10.0 mi WSW 6.9 mph - N/A   Clear
10:15 PM 66.2 °F 28.4 °F 24% 29.91 in 10.0 mi WSW 6.9 mph - N/A   Clear
10:35 PM 64.4 °F 28.4 °F 26% 29.91 in 10.0 mi WSW 8.1 mph - N/A   Clear
10:55 PM 66.2 °F 30.2 °F 26% 29.91 in 10.0 mi WSW 6.9 mph - N/A   Clear
11:15 PM 64.4 °F 30.2 °F 28% 29.91 in 10.0 mi WSW 8.1 mph - N/A   Clear
11:35 PM 64.4 °F 32.0 °F 30% 29.90 in 10.0 mi WSW 6.9 mph - N/A   Clear
11:55 PM 64.4 °F 32.0 °F 30% 29.90 in 10.0 mi WSW 9.2 mph - N/A   Clear